|
Cosmos 1125 Rocket - Orbit
|
Just a Camp Observatory;
21:09:56
| Home | Info | Passes |
|
View from above orbital plane
|
View from above satellite
|
Ground track
|
The orbit data is extracted from the following two-line orbital elements,
1 11511U 79078B 13144.19584285 .00000107 00000-0 45476-4 0 5146
2 11511 074.0358 163.7448 0014966 046.3394 021.0056 14.36211501765394
| Epoch (UTC): | 24 May 2013 04:42:00 |
| Eccentricity: | 0.0014966 |
| inclination: | 74.0358° |
| perigee height: | 760 km |
| apogee height: | 782 km |
| right ascension of ascending node: | 163.7448° |
| argument of perigee: | 46.3394° |
| revolutions per day: | 14.36211501 |
| mean anomaly at epoch: | 21.0056° |
| orbit number at epoch: | 76539 |
The dashed part of the orbit path shows where the satellite is in the earth's shadow,
|
|